GW0068 Weather Reports


time (UTC)temp
C
wind
direction
speed
KPH
gust
KPH
rain 1hr
cm
rain 24hr
cm
rain mn
cm
humidity
%
barometer
mb
20260507154022 30 0 1.6 9.7 0.00 0.00 0.00 79 1015.9
20260507153521 30 198 1.6 9.7 0.00 0.00 0.00 78 1015.9
20260507153046 30 186 1.6 9.7 0.00 0.00 0.00 79 1015.8
20260507152521 30 202 1.6 9.7 0.00 0.00 0.00 81 1015.9
20260507152023 30 167 1.6 9.7 0.00 0.00 0.00 81 1015.8
20260507151539 29 192 0.0 9.7 0.00 0.00 0.00 82 1015.8
20260507151023 29 194 1.6 16.1 0.00 0.00 0.00 81 1015.8
20260507150526 29 98 3.2 16.1 0.00 0.00 0.00 81 1015.8
20260507150043 29 105 3.2 16.1 0.00 0.00 0.00 80 1015.8
20260507145524 29 70 0.0 12.9 0.00 0.00 0.00 81 1015.9
20260507145022 29 71 3.2 12.9 0.00 0.00 0.00 81 1015.8
20260507144546 29 90 1.6 9.7 0.00 0.00 0.00 80 1015.9
20260507144022 30 0 1.6 12.9 0.00 0.00 0.00 79 1015.9
20260507143525 29 0 3.2 12.9 0.00 0.00 0.00 80 1015.8
20260507143040 29 65 3.2 12.9 0.00 0.00 0.00 81 1015.9
20260507142523 29 72 1.6 12.9 0.00 0.00 0.00 81 1015.8
20260507142023 29 74 1.6 8.0 0.00 0.00 0.00 80 1015.8
20260507141539 29 20 1.6 8.0 0.00 0.00 0.00 79 1015.8
20260507141026 29 0 1.6 8.0 0.00 0.00 0.00 80 1015.7
20260507140522 28 74 0.0 8.0 0.00 0.00 0.00 80 1015.7
20260507140104 28 246 0.0 4.8 0.00 0.00 0.00 81 1015.7
20260507135522 28 107 0.0 4.8 0.00 0.00 0.00 82 1015.7
20260507135022 28 0 0.0 3.2 0.00 0.00 0.00 84 1015.7
20260507134539 27 0 0.0 1.6 0.00 0.00 0.00 85 1015.7
20260507134021 27 0 0.0 6.4 0.00 0.00 0.00 85 1015.8
20260507133522 27 0 0.0 6.4 0.00 0.00 0.00 85 1015.7
20260507133038 27 0 0.0 6.4 0.00 0.00 0.00 84 1015.8
20260507132526 27 206 0.0 8.0 0.00 0.00 0.00 83 1015.7
20260507132021 27 0 0.0 8.0 0.00 0.00 0.00 83 1015.7
20260507131539 27 134 0.0 6.4 0.00 0.00 0.00 84 1015.8
20260507131022 27 198 0.0 6.4 0.00 0.00 0.00 84 1015.6
20260507130524 27 167 0.0 4.8 0.00 0.00 0.00 84 1015.5
20260507130049 27 0 0.0 6.4 0.00 0.00 0.00 85 1015.5
20260507125524 27 146 1.6 6.4 0.00 0.13 0.00 86 1015.4
20260507125023 27 175 1.6 8.0 0.00 0.13 0.00 86 1015.5
20260507124541 27 0 1.6 12.9 0.00 0.13 0.00 87 1015.4
20260507124021 27 42 3.2 12.9 0.00 0.13 0.00 88 1015.3
20260507123522 27 72 1.6 8.0 0.00 0.13 0.00 88 1015.2
20260507123052 27 0 1.6 9.7 0.00 0.13 0.00 89 1015.3
20260507122521 26 66 1.6 9.7 0.00 0.13 0.00 89 1015.4
20260507122022 26 101 0.0 6.4 0.00 0.13 0.00 90 1015.3
20260507121542 26 0 1.6 6.4 0.00 0.13 0.00 90 1015.3
20260507121022 26 106 1.6 4.8 0.00 0.13 0.00 91 1015.3
20260507120521 26 81 1.6 4.8 0.00 0.13 0.00 91 1015.2
20260507120040 26 66 0.0 4.8 0.00 0.13 0.00 91 1015.2
20260507115521 25 0 0.0 3.2 0.00 0.13 0.00 92 1015.2
20260507115021 25 56 0.0 4.8 0.00 0.13 0.00 92 1015.1
20260507114538 25 56 1.6 4.8 0.00 0.13 0.00 92 1015.0
20260507114021 25 77 0.0 3.2 0.00 0.13 0.00 93 1014.9
20260507113522 25 0 0.0 3.2 0.00 0.13 0.00 93 1014.9
20260507113042 25 77 0.0 1.6 0.00 0.13 0.00 93 1014.7
20260507112522 24 0 0.0 1.6 0.00 0.13 0.00 93 1014.7
20260507112022 24 0 0.0 1.6 0.00 0.13 0.00 93 1014.6
20260507111544 24 0 0.0 3.2 0.00 0.13 0.00 93 1014.5
20260507111022 24 0 0.0 3.2 0.00 0.13 0.00 93 1014.5
20260507110521 24 0 0.0 3.2 0.00 0.13 0.00 93 1014.5
20260507110039 24 0 0.0 1.6 0.00 0.13 0.00 93 1014.4
20260507105521 24 0 0.0 1.6 0.00 0.13 0.00 93 1014.3
20260507105021 24 0 0.0 1.6 0.00 0.13 0.00 93 1014.3
20260507104541 24 0 0.0 1.6 0.00 0.13 0.00 93 1014.3
20260507104024 24 0 0.0 1.6 0.00 0.13 0.00 93 1014.3
20260507103521 24 0 0.0 1.6 0.00 0.13 0.00 93 1014.3
20260507103036 24 0 0.0 1.6 0.00 0.13 0.00 93 1014.2
20260507102521 24 0 0.0 3.2 0.00 0.13 0.00 93 1014.3
20260507102022 24 0 0.0 3.2 0.00 0.13 0.00 93 1014.2
20260507101546 24 0 0.0 1.6 0.00 0.13 0.00 93 1014.2
20260507101022 24 77 0.0 1.6 0.00 0.13 0.00 92 1014.1
20260507100521 24 0 0.0 0.0 0.00 0.13 0.00 92 1014.2
20260507100041 24 0 0.0 1.6 0.00 0.13 0.00 92 1014.1
20260507095522 24 0 0.0 3.2 0.00 0.13 0.00 92 1014.2
20260507095022 24 0 0.0 3.2 0.00 0.13 0.00 92 1014.2
20260507094540 24 0 0.0 1.6 0.00 0.13 0.00 92 1014.1
20260507094021 24 0 0.0 0.0 0.00 0.13 0.00 92 1014.0
20260507093523 24 0 0.0 0.0 0.00 0.13 0.00 92 1014.0
20260507093040 24 0 0.0 0.0 0.00 0.13 0.00 92 1014.1
20260507092524 24 0 0.0 0.0 0.00 0.13 0.00 92 1014.1
20260507092021 24 0 0.0 0.0 0.00 0.13 0.00 92 1013.9
20260507091534 24 0 0.0 0.0 0.00 0.13 0.00 92 1013.9
20260507091021 24 0 0.0 0.0 0.00 0.13 0.00 92 1013.9
20260507090523 24 0 0.0 0.0 0.00 0.13 0.00 91 1014.0
20260507090043 24 0 0.0 1.6 0.00 0.13 0.00 91 1014.0
20260507085522 24 0 0.0 1.6 0.00 0.13 0.00 91 1014.0
20260507085022 25 0 0.0 1.6 0.00 0.13 0.00 91 1014.1
20260507084541 25 0 0.0 1.6 0.00 0.13 0.00 91 1014.0
20260507084026 25 0 0.0 3.2 0.00 0.13 0.00 91 1014.0
20260507083521 25 0 0.0 3.2 0.00 0.13 0.00 91 1013.9
20260507083047 25 77 0.0 3.2 0.00 0.13 0.00 91 1014.0
20260507082522 25 0 0.0 3.2 0.00 0.13 0.00 91 1013.9
20260507082021 25 0 0.0 3.2 0.00 0.13 0.00 91 1013.9
20260507081538 25 77 0.0 3.2 0.00 0.13 0.00 91 1014.0
20260507081022 25 77 0.0 3.2 0.00 0.13 0.00 91 1014.0
20260507080524 25 0 0.0 1.6 0.00 0.13 0.00 90 1014.0
20260507080035 25 0 0.0 1.6 0.00 0.13 0.00 90 1014.1
20260507075521 25 0 0.0 3.2 0.00 0.13 0.00 90 1014.0
20260507075022 25 0 0.0 4.8 0.00 0.13 0.00 90 1014.1
20260507074545 25 77 0.0 4.8 0.00 0.13 0.00 90 1014.1
20260507074020 25 82 1.6 6.4 0.00 0.13 0.00 90 1014.1
20260507073523 25 52 0.0 6.4 0.00 0.13 0.00 90 1014.1
20260507073040 25 0 0.0 4.8 0.00 0.13 0.00 91 1014.2
20260507072522 25 0 0.0 3.2 0.00 0.13 0.00 91 1014.2
20260507072021 25 0 0.0 1.6 0.00 0.13 0.00 91 1014.2
20260507071554 25 0 0.0 1.6 0.00 0.13 0.00 90 1014.4
20260507071025 25 0 0.0 0.0 0.00 0.13 0.00 90 1014.4
20260507070521 25 0 0.0 0.0 0.00 0.13 0.00 90 1014.5
20260507070039 25 0 0.0 0.0 0.00 0.13 0.00 90 1014.5
20260507065521 25 0 0.0 0.0 0.00 0.13 0.00 90 1014.6
20260507065021 25 0 0.0 0.0 0.00 0.13 0.00 90 1014.5
20260507064542 25 0 0.0 0.0 0.00 0.13 0.00 90 1014.6
20260507064024 25 0 0.0 0.0 0.00 0.13 0.00 90 1014.7
20260507063520 25 0 0.0 0.0 0.00 0.13 0.00 90 1014.7
20260507063041 25 0 0.0 1.6 0.00 0.13 0.00 90 1014.8
20260507062521 25 0 0.0 1.6 0.00 0.13 0.00 89 1014.9
20260507062021 25 0 0.0 0.0 0.00 0.13 0.00 89 1014.9
20260507061542 25 0 0.0 0.0 0.00 0.13 0.00 89 1014.8
20260507061018 25 0 0.0 0.0 0.00 0.13 0.00 88 1015.0
20260507060520 25 0 0.0 0.0 0.00 0.13 0.00 88 1014.9
20260507060039 25 0 0.0 0.0 0.00 0.13 0.00 88 1015.0
20260507055521 25 0 0.0 0.0 0.00 0.13 0.00 87 1015.0
20260507055023 25 0 0.0 0.0 0.00 0.13 0.00 87 1015.0
20260507054546 26 0 0.0 0.0 0.00 0.13 0.00 86 1015.1
20260507054020 26 0 0.0 3.2 0.00 0.13 0.00 85 1015.2
20260507053521 26 0 0.0 4.8 0.00 0.13 0.00 85 1015.3
20260507053043 26 0 0.0 4.8 0.00 0.13 0.00 85 1015.2
20260507052521 26 0 1.6 4.8 0.00 0.13 0.00 85 1015.4
20260507052021 27 0 0.0 3.2 0.00 0.13 0.00 85 1015.5
20260507051540 26 0 0.0 3.2 0.00 0.13 0.00 85 1015.5
20260507051021 26 0 0.0 3.2 0.00 0.13 0.00 85 1015.5
20260507050520 26 0 0.0 3.2 0.00 0.13 0.00 85 1015.6
20260507050039 26 0 0.0 3.2 0.00 0.13 0.00 85 1015.7
20260507045521 26 0 0.0 4.8 0.00 0.13 0.13 85 1015.6
20260507045019 26 92 0.0 4.8 0.00 0.13 0.13 85 1015.8
20260507044539 26 0 0.0 4.8 0.00 0.13 0.13 85 1015.8
20260507044019 26 0 0.0 4.8 0.00 0.13 0.13 85 1015.7
20260507043521 26 0 0.0 4.8 0.00 0.13 0.13 85 1015.8
20260507043040 26 0 0.0 1.6 0.00 0.13 0.13 85 1015.7
20260507042521 26 0 0.0 1.6 0.00 0.13 0.13 85 1015.7
20260507042021 26 0 0.0 1.6 0.00 0.13 0.13 85 1015.8
20260507041539 26 51 0.0 3.2 0.00 0.13 0.13 85 1015.8
20260507041021 26 24 0.0 3.2 0.00 0.13 0.13 85 1015.7
20260507040518 26 0 0.0 3.2 0.00 0.13 0.13 86 1015.7
20260507040057 26 0 0.0 3.2 0.00 0.13 0.13 86 1015.8
20260507035519 26 64 0.0 3.2 0.00 0.13 0.13 86 1015.6
20260507035019 26 0 0.0 0.0 0.00 0.13 0.13 86 1015.7
20260507034547 26 0 0.0 3.2 0.00 0.13 0.13 86 1015.7
20260507034021 26 0 0.0 3.2 0.00 0.13 0.13 86 1015.7
20260507033520 26 0 0.0 3.2 0.00 0.13 0.13 86 1015.7
20260507033042 26 0 0.0 0.0 0.00 0.13 0.13 86 1015.8
20260507032519 26 0 0.0 1.6 0.00 0.13 0.13 85 1015.8
20260507032022 26 0 0.0 1.6 0.00 0.13 0.13 85 1015.8
20260507031538 26 0 0.0 3.2 0.00 0.13 0.13 85 1015.8
20260507031018 26 0 0.0 3.2 0.00 0.13 0.13 85 1015.9
20260507030521 26 0 0.0 3.2 0.00 0.13 0.13 85 1015.7
20260507030040 27 0 0.0 4.8 0.00 0.13 0.13 85 1015.7
20260507025521 27 0 0.0 4.8 0.00 0.13 0.13 85 1015.6
20260507025021 26 0 0.0 1.6 0.00 0.13 0.13 85 1015.6
20260507024538 27 0 0.0 1.6 0.00 0.13 0.13 84 1015.5
20260507024023 27 0 0.0 0.0 0.00 0.13 0.13 84 1015.4
20260507023520 27 0 0.0 0.0 0.00 0.13 0.13 84 1015.3
20260507023033 27 0 0.0 0.0 0.00 0.13 0.13 84 1015.4
20260507022521 27 0 0.0 1.6 0.00 0.13 0.13 84 1015.3
20260507022020 27 0 0.0 1.6 0.00 0.13 0.13 84 1015.3
20260507021541 27 0 0.0 1.6 0.00 0.13 0.13 84 1015.3
20260507021021 27 0 0.0 1.6 0.00 0.13 0.13 84 1015.3
20260507020520 27 0 0.0 1.6 0.00 0.13 0.13 84 1015.3
20260507020042 27 0 0.0 1.6 0.00 0.13 0.13 84 1015.2
20260507015524 27 0 0.0 1.6 0.00 0.13 0.13 83 1015.4
20260507015021 27 0 0.0 3.2 0.00 0.13 0.13 83 1015.4
20260507014535 27 0 0.0 3.2 0.00 0.13 0.13 83 1015.3
20260507014020 27 0 0.0 4.8 0.00 0.13 0.13 84 1015.4
20260507013521 27 0 0.0 4.8 0.00 0.13 0.13 83 1015.2
20260507013040 27 0 0.0 3.2 0.00 0.13 0.13 83 1015.2
20260507012523 27 0 0.0 3.2 0.00 0.13 0.13 83 1015.0
20260507012021 27 78 0.0 3.2 0.00 0.13 0.13 83 1015.1
20260507011541 27 0 0.0 1.6 0.00 0.13 0.13 82 1015.0
20260507011019 27 0 0.0 1.6 0.00 0.13 0.13 82 1014.9
20260507010520 27 58 0.0 1.6 0.00 0.13 0.13 82 1014.8
20260507010039 27 0 0.0 1.6 0.00 0.13 0.13 81 1014.8
20260507005520 27 0 0.0 1.6 0.00 0.13 0.13 81 1014.8
20260507005020 27 0 0.0 1.6 0.00 0.13 0.13 81 1014.8
20260507004539 27 0 0.0 1.6 0.00 0.13 0.13 81 1014.7
20260507004020 27 0 0.0 3.2 0.00 0.13 0.13 81 1014.7
20260507003521 27 0 0.0 4.8 0.00 0.13 0.13 80 1014.7
20260507003040 27 0 0.0 4.8 0.00 0.13 0.13 80 1014.7
20260507002521 27 0 0.0 4.8 0.00 0.13 0.13 80 1014.7
20260507002021 27 70 0.0 4.8 0.00 0.13 0.13 80 1014.7
20260507001549 28 192 0.0 4.8 0.00 0.13 0.13 80 1014.7
20260507001020 28 91 0.0 3.2 0.00 0.13 0.13 79 1014.7
20260507000523 28 123 0.0 3.2 0.00 0.13 0.13 79 1014.6
20260507000040 28 98 0.0 1.6 0.00 0.13 0.13 79 1014.5
20260506235521 28 0 0.0 3.2 0.00 0.13 0.13 79 1014.3
20260506235020 28 0 0.0 3.2 0.00 0.13 0.13 78 1014.3
20260506234544 28 0 0.0 3.2 0.00 0.13 0.13 78 1014.3
20260506234020 28 0 0.0 3.2 0.00 0.13 0.13 78 1014.2
20260506233521 28 0 0.0 6.4 0.00 0.13 0.13 77 1014.3
20260506233039 28 189 1.6 6.4 0.00 0.13 0.13 77 1014.3
20260506232520 28 222 0.0 6.4 0.00 0.13 0.13 77 1014.3
20260506232021 28 117 0.0 6.4 0.00 0.13 0.13 77 1014.2
20260506231540 28 0 0.0 4.8 0.00 0.13 0.13 77 1014.3
20260506231021 28 173 0.0 6.4 0.00 0.13 0.13 76 1014.2
20260506230518 28 0 0.0 6.4 0.00 0.13 0.13 76 1014.2
20260506230039 28 226 1.6 6.4 0.00 0.13 0.13 76 1014.2
20260506225520 28 111 1.6 3.2 0.00 0.13 0.13 76 1014.2
20260506225020 28 0 0.0 6.4 0.00 0.13 0.13 76 1014.2
20260506224537 29 96 1.6 6.4 0.00 0.13 0.13 75 1014.2
20260506224021 29 298 1.6 4.8 0.00 0.13 0.13 74 1014.1
20260506223517 29 63 0.0 4.8 0.00 0.13 0.13 75 1014.1
20260506223038 29 50 0.0 4.8 0.00 0.13 0.13 74 1014.1
20260506222521 29 114 0.0 11.3 0.00 0.13 0.13 73 1014.0
20260506222020 29 161 0.0 12.9 0.00 0.13 0.13 73 1013.9
20260506221538 29 62 3.2 12.9 0.00 0.13 0.13 72 1013.8
20260506221021 29 91 1.6 9.7 0.00 0.13 0.13 73 1013.9
20260506220521 29 152 3.2 16.1 0.00 0.13 0.13 72 1013.8
20260506220057 30 136 1.6 16.1 0.00 0.13 0.13 72 1013.8
20260506215520 30 82 1.6 16.1 0.00 0.13 0.13 73 1013.8
20260506215021 29 35 1.6 16.1 0.00 0.13 0.13 74 1013.8
20260506214539 30 78 3.2 14.5 0.00 0.13 0.13 75 1013.7
20260506214020 30 37 3.2 14.5 0.00 0.13 0.13 73 1013.8
20260506213520 30 70 1.6 14.5 0.00 0.13 0.13 73 1013.9
20260506213039 30 56 3.2 11.3 0.00 0.13 0.13 73 1013.9
20260506212522 30 66 1.6 19.3 0.00 0.13 0.13 72 1013.8
20260506212020 30 51 4.8 19.3 0.00 0.13 0.13 71 1013.8
20260506211538 30 84 1.6 16.1 0.00 0.13 0.13 72 1013.9
20260506211020 30 76 3.2 17.7 0.00 0.13 0.13 71 1013.8
20260506210520 30 84 6.4 17.7 0.00 0.13 0.13 70 1013.9
20260506210050 30 87 4.8 16.1 0.00 0.13 0.13 70 1013.9
20260506205521 30 98 1.6 16.1 0.00 0.13 0.13 71 1014.1
20260506205021 30 74 1.6 9.7 0.00 0.13 0.13 72 1014.0
20260506204541 30 78 1.6 12.9 0.00 0.13 0.13 71 1014.1
20260506204020 31 28 4.8 12.9 0.00 0.13 0.13 70 1014.2
20260506203521 31 0 3.2 16.1 0.00 0.13 0.13 71 1014.1
20260506203113 31 102 4.8 16.1 0.00 0.13 0.13 70 1014.3
20260506202521 31 67 3.2 16.1 0.00 0.13 0.13 72 1014.3
20260506202020 31 66 1.6 16.1 0.00 0.13 0.13 70 1014.2
20260506201540 31 82 3.2 17.7 0.00 0.13 0.13 70 1014.4
20260506201019 31 65 1.6 17.7 0.00 0.13 0.13 70 1014.3
20260506200517 31 92 4.8 19.3 0.00 0.13 0.13 71 1014.3
20260506200046 31 0 3.2 19.3 0.00 0.13 0.13 72 1014.3
20260506195521 31 78 4.8 14.5 0.00 0.13 0.13 71 1014.4
20260506195021 31 0 4.8 14.5 0.00 0.13 0.13 72 1014.4
20260506194540 31 0 3.2 12.9 0.00 0.13 0.13 72 1014.5
20260506194021 31 167 1.6 12.9 0.00 0.13 0.13 72 1014.5
20260506193520 31 34 3.2 12.9 0.00 0.13 0.13 71 1014.4
20260506193039 31 227 3.2 11.3 0.00 0.13 0.13 73 1014.6
20260506192520 31 323 1.6 11.3 0.00 0.13 0.13 73 1014.6
20260506192020 30 225 3.2 11.3 0.00 0.13 0.13 72 1014.6
20260506191539 31 146 3.2 12.9 0.00 0.13 0.13 73 1014.7
20260506191021 31 0 1.6 12.9 0.00 0.13 0.13 74 1014.7
20260506190520 31 72 3.2 12.9 0.00 0.13 0.13 72 1014.8
20260506190046 31 225 3.2 12.9 0.00 0.13 0.13 72 1014.9
20260506185519 31 0 3.2 14.5 0.00 0.13 0.13 70 1015.0
20260506185017 31 192 1.6 14.5 0.00 0.13 0.13 71 1014.9
20260506184541 31 102 1.6 14.5 0.00 0.13 0.13 71 1015.0
20260506184022 31 232 1.6 17.7 0.00 0.13 0.13 69 1015.0
20260506183520 31 231 1.6 17.7 0.00 0.13 0.13 69 1015.1
20260506183041 31 80 4.8 17.7 0.00 0.13 0.13 70 1015.0
20260506182520 31 200 1.6 12.9 0.00 0.13 0.13 69 1015.1
20260506182024 31 233 1.6 9.7 0.00 0.13 0.13 73 1015.1
20260506181539 31 86 3.2 9.7 0.00 0.13 0.13 74 1015.2
20260506181023 31 213 1.6 16.1 0.00 0.13 0.13 69 1015.3
20260506180523 31 128 4.8 16.1 0.00 0.13 0.13 74 1015.4
20260506180038 31 187 0.0 14.5 0.00 0.13 0.13 73 1015.5
20260506175523 31 0 1.6 14.5 0.00 0.13 0.13 71 1015.5
20260506175020 31 142 3.2 14.5 0.00 0.13 0.13 71 1015.6
20260506174539 31 252 3.2 12.9 0.00 0.13 0.13 71 1015.6
20260506174019 31 0 0.0 16.1 0.00 0.13 0.13 72 1015.6
20260506173522 31 81 4.8 16.1 0.00 0.13 0.13 73 1015.6
20260506173044 31 5 1.6 14.5 0.00 0.13 0.13 72 1015.6
20260506172522 31 232 1.6 8.0 0.00 0.13 0.13 74 1015.6
20260506172022 31 0 1.6 9.7 0.00 0.13 0.13 75 1015.7
20260506171535 31 0 3.2 14.5 0.00 0.13 0.13 75 1015.7
20260506171022 31 0 3.2 14.5 0.00 0.13 0.13 73 1015.8
20260506170524 30 33 3.2 11.3 0.00 0.13 0.13 73 1015.7
20260506170043 30 0 1.6 12.9 0.00 0.13 0.13 74 1015.9
20260506165523 30 146 1.6 12.9 0.00 0.13 0.13 74 1015.9
20260506165022 30 74 3.2 12.9 0.00 0.13 0.13 73 1016.0
20260506164545 31 121 1.6 11.3 0.00 0.13 0.13 73 1016.0
20260506164022 31 130 1.6 12.9 0.00 0.13 0.13 73 1016.1
20260506163522 30 0 1.6 12.9 0.00 0.13 0.13 74 1016.0
20260506163055 31 38 3.2 12.9 0.00 0.13 0.13 72 1016.1
20260506162523 31 201 1.6 8.0 0.00 0.13 0.13 72 1016.2
20260506162023 31 219 3.2 11.3 0.00 0.13 0.13 73 1016.1
20260506161539 30 17 1.6 11.3 0.00 0.13 0.13 73 1016.1
20260506161022 31 211 1.6 8.0 0.00 0.13 0.13 73 1016.1
20260506160522 31 55 1.6 12.9 0.00 0.13 0.13 72 1016.0
20260506160043 31 69 1.6 12.9 0.00 0.13 0.13 71 1016.1
20260506155522 31 155 3.2 12.9 0.00 0.13 0.13 72 1016.1
20260506155022 31 99 1.6 12.9 0.00 0.13 0.13 74 1016.1
20260506154547 31 163 1.6 12.9 0.00 0.13 0.13 76 1016.1